www.pogodaiklimat.ru

Погода и климат >> Архив погоды >> Италия >> Отранто


ПОГОДА в Отранто

  • Прогноз погоды в Отранто
  • Монитор погоды в Отранто

АРХИВ ПОГОДЫ в Отранто

Время (UTC), дата Ветер
(напр.,м/с)
 
Видим.   Явления Облачность Т
(С)
Тd
(С)
f
(%)
Тe
(С)
Тes
(С)
Комфортность P
(гПа)
Po
(гПа)
Тmin
(С)
Tmax
(С)
R
(мм)
R24
(мм)
S
(см)
16 17.06 СВ 2 н/о н/о +26.5 +26.5 100 +40 +40 очень
душно
1011.1 1001.4
17 17.06 С 2 н/о н/о +25.5 +25.4 99 +37 +37 очень
душно
1011.6 1001.8
18 17.06 СВ 1 н/о н/о +24.7 +24.6 99 +35 +35 очень
душно
1011.7 1001.9 +28.7
19 17.06 С 2 н/о н/о +23.5 +23.4 99 +32 +32 очень
душно
1012.1 1002.3
20 17.06 СЗ 1 н/о н/о +23.0 +22.9 99 +32 +32 очень
душно
1012.6 1002.7
21 17.06 З 1 н/о н/о +22.5 +22.4 99 +30 +30 очень
душно
1012.5 1002.6
22 17.06 штиль 0 н/о н/о +21.9 +21.8 99 +29 +29 очень
душно
1012.6 1002.7
23 17.06 СЗ 3 н/о н/о +22.1 +22.0 99 +29 +29 очень
душно
1012.6 1002.7
00 18.06 СЗ 3 н/о н/о +22.1 +22.0 99 +29 +29 очень
душно
1012.5 1002.6
01 18.06 СЗ 3 н/о н/о +21.3 +21.2 99 +27 +27 душно 1012.4 1002.5
02 18.06 СЗ 3 н/о н/о +21.4 +21.3 99 +27 +27 душно 1012.4 1002.5
03 18.06 С 3 н/о н/о +21.6 +21.5 99 +28 +28 очень
душно
1012.7 1002.8
04 18.06 С 4 н/о н/о +21.6 +21.5 99 +28 +28 очень
душно
1012.8 1002.9
05 18.06 С 3 н/о н/о +22.4 +22.3 99 +30 +30 очень
душно
1013.1 1003.2
06 18.06 С 4 н/о н/о +23.8 +23.7 99 +32 +32 очень
душно
1013.2 1003.4 +21.0 108
07 18.06 С 4 н/о н/о +24.7 +24.6 99 +35 +35 очень
душно
1013.4 1003.6
08 18.06 С 5 н/о н/о +25.3 +25.2 99 +36 +36 очень
душно
1013.4 1003.6
09 18.06 С 4 н/о н/о +25.7 +25.7 100 +38 +38 очень
душно
1013.6 1003.8
10 18.06 С 5 н/о н/о +25.7 +25.7 100 +38 +38 очень
душно
1013.8 1004.0
11 18.06 С 4 н/о н/о +26.6 +26.6 100 +41 +41 опасность
перегрева
1013.8 1004.1
12 18.06 С 3 н/о н/о +25.6 +25.5 99 +37 +37 очень
душно
1013.6 1003.8
13 18.06 СЗ 2 н/о н/о +24.4 +24.3 99 +34 +34 очень
душно
1013.8 1004.0
14 18.06 С 2 н/о н/о +24.8 +24.7 99 +35 +35 очень
душно
1013.3 1003.5
15 18.06 С 3 н/о н/о +26.1 +26.1 100 +39 +39 очень
душно
1012.5 1002.7
16 18.06 С 3 н/о н/о +25.1 +25.0 99 +36 +36 очень
душно
1012.3 1002.5
17 18.06 С 2 н/о н/о +24.7 +24.6 99 +35 +35 очень
душно
1013.1 1003.3
18 18.06 С 2 н/о н/о +24.6 +24.5 99 +34 +34 очень
душно
1013.2 1003.4 +27.2
19 18.06 С 2 н/о н/о +23.7 +23.6 99 +32 +32 очень
душно
1013.7 1003.8
20 18.06 С 2 н/о н/о +23.3 +23.2 99 +33 +33 очень
душно
1014.0 1004.1
21 18.06 СЗ 1 н/о н/о +22.5 +22.4 99 +30 +30 очень
душно
1014.0 1004.1
22 18.06 З 2 н/о н/о +21.8 +21.7 99 +28 +28 душно 1013.9 1004.0
23 18.06 СЗ 2 н/о н/о +21.2 +21.1 99 +27 +27 душно 1013.5 1003.6
00 19.06 З 2 н/о н/о +20.9 +20.8 99 +27 +27 душно 1013.5 1003.6
01 19.06 СЗ 3 н/о н/о +20.9 +20.8 99 +27 +27 душно 1012.9 1003.0
02 19.06 СЗ 3 н/о н/о +21.2 +21.1 99 +27 +27 душно 1012.6 1002.7
03 19.06 СЗ 2 н/о н/о +21.4 +21.3 99 +27 +27 душно 1012.5 1002.6
04 19.06 СЗ 3 н/о н/о +21.3 +21.2 99 +27 +27 душно 1012.7 1002.8
05 19.06 СЗ 2 н/о н/о +22.0 +21.9 99 +29 +29 очень
душно
1012.9 1003.0
06 19.06 СВ 3 н/о н/о +23.7 +23.6 99 +32 +32 очень
душно
1012.9 1003.1 +20.7 506
07 19.06 С 3 н/о н/о +24.6 +24.5 99 +34 +34 очень
душно
1013.1 1003.3
08 19.06 С 4 н/о н/о +25.4 +25.3 99 +37 +37 очень
душно
1013.2 1003.4
09 19.06 С 3 н/о н/о +26.1 +26.1 100 +39 +39 очень
душно
1013.3 1003.5
10 19.06 СВ 3 н/о н/о +26.7 +26.7 100 +41 +41 опасность
перегрева
1013.3 1003.6
11 19.06 СВ 3 н/о н/о +27.0 +27.0 100 +42 +42 опасность
перегрева
1013.2 1003.5
12 19.06 СВ 4 н/о н/о +27.1 +27.1 100 +43 +43 опасность
перегрева
1012.9 1003.2 0.2
13 19.06 СВ 3 н/о н/о +27.1 +27.1 100 +43 +43 опасность
перегрева
1012.3 1002.6
14 19.06 В 2 н/о н/о +27.1 +26.9 99 +42 +42 опасность
перегрева
1012.2 1002.5
15 19.06 Ю 1 н/о н/о +27.8 +27.3 97 +44 +44 опасность
перегрева
1011.9 1002.2
16 19.06 Ю 3 н/о н/о +26.1 +26.1 100 +39 +39 очень
душно
1011.5 1001.7
17 19.06 ЮВ 1 н/о н/о +26.8 +26.8 100 +42 +42 опасность
перегрева
1011.6 1001.9
18 19.06 В 2 н/о н/о +25.1 +25.0 99 +36 +36 очень
душно
1011.9 1002.1 +28.2 0.2
19 19.06 В 1 н/о н/о +24.5 +24.4 99 +34 +34 очень
душно
1012.2 1002.4
20 19.06 СВ 1 н/о н/о +23.7 +23.6 99 +32 +32 очень
душно
1012.7 1002.9
21 19.06 штиль 0 н/о н/о +23.2 +23.1 99 +32 +32 очень
душно
1012.6 1002.7
22 19.06 СЗ 1 н/о н/о +23.1 +23.0 99 +32 +32 очень
душно
1012.8 1002.9
23 19.06 З 1 н/о н/о +22.7 +22.6 99 +31 +31 очень
душно
1012.4 1002.5
00 20.06 СЗ 1 н/о н/о +22.3 +22.2 99 +30 +30 очень
душно
1012.3 1002.4
01 20.06 СЗ 2 н/о н/о +21.3 +21.2 99 +27 +27 душно 1012.0 1002.1
02 20.06 СЗ 2 н/о н/о +21.4 +21.3 99 +27 +27 душно 1011.8 1001.9
03 20.06 СЗ 2 н/о н/о +22.1 +22.0 99 +29 +29 очень
душно
1011.9 1002.0
04 20.06 СЗ 2 н/о н/о +22.2 +22.1 99 +29 +29 очень
душно
1012.2 1002.3
05 20.06 С 2 н/о н/о +23.2 +23.1 99 +32 +32 очень
душно
1012.5 1002.6
06 20.06 СВ 2 н/о н/о +24.5 +24.4 99 +34 +34 очень
душно
1012.6 1002.8 +20.9 203
07 20.06 СВ 3 н/о н/о +25.9 +25.9 100 +38 +38 очень
душно
1012.8 1003.0
08 20.06 СВ 2 н/о н/о +26.4 +26.4 100 +40 +40 очень
душно
1012.7 1003.0
09 20.06 СВ 2 н/о н/о +26.9 +26.9 100 +42 +42 опасность
перегрева
1012.9 1003.2
10 20.06 В 2 н/о н/о +27.4 +26.7 96 +42 +42 опасность
перегрева
1013.1 1003.4
11 20.06 В 3 н/о н/о +27.7 +26.1 91 +42 +42 опасность
перегрева
1013.0 1003.3
12 20.06 СВ 4 н/о н/о +27.6 +26.9 96 +43 +43 опасность
перегрева
1012.9 1003.2
13 20.06 СВ 3 н/о н/о +27.6 +26.0 91 +41 +41 опасность
перегрева
1012.6 1002.9
14 20.06 В 1 н/о н/о +28.0 +26.8 93 +44 +44 опасность
перегрева
1012.3 1002.6
15 20.06 В 2 н/о н/о +28.4 +26.2 88 +43 +43 опасность
перегрева
1012.0 1002.3
16 20.06 Ю 2 н/о н/о +28.2 +25.6 86 +42 +42 опасность
перегрева
1011.8 1002.1
17 20.06 Ю 2 н/о н/о +26.7 +25.4 93 +39 +39 очень
душно
1012.2 1002.5
18 20.06 ЮЗ 1 н/о н/о +26.0 +25.4 97 +38 +38 очень
душно
1012.4 1002.6 +28.9
19 20.06 З 1 н/о н/о +25.1 +23.5 91 +34 +34 очень
душно
1012.6 1002.8
20 20.06 З 1 н/о н/о +24.5 +22.9 91 +32 +32 очень
душно
1013.2 1003.4
21 20.06 СЗ 1 н/о н/о +23.6 +22.2 92 +31 +31 очень
душно
1013.4 1003.5
22 20.06 СЗ 2 н/о н/о +23.4 +23.2 99 +33 +33 очень
душно
1013.5 1003.6
23 20.06 СЗ 2 н/о н/о +23.2 +23.1 99 +32 +32 очень
душно
1013.6 1003.7
00 21.06 СЗ 2 н/о н/о +22.7 +22.6 99 +31 +31 очень
душно
1013.5 1003.6
01 21.06 З 2 н/о н/о +22.5 +22.4 99 +30 +30 очень
душно
1013.3 1003.4
02 21.06 З 2 н/о н/о +22.3 +22.2 99 +30 +30 очень
душно
1013.4 1003.5
03 21.06 СЗ 3 н/о н/о +22.3 +22.2 99 +30 +30 очень
душно
1013.5 1003.6
04 21.06 С 2 н/о н/о +22.1 +22.0 99 +29 +29 очень
душно
1013.8 1003.9
05 21.06 СВ 2 н/о н/о +24.1 +24.0 99 +33 +33 очень
душно
1014.0 1004.2
06 21.06 В 3 н/о н/о +25.7 +25.7 100 +38 +38 очень
душно
1014.4 1004.6 +22.0 405
07 21.06 СВ 3 н/о н/о +26.6 +26.6 100 +41 +41 опасность
перегрева
1014.8 1005.0
08 21.06 С 3 н/о н/о +27.5 +25.9 91 +41 +41 опасность
перегрева
1014.8 1005.1
09 21.06 СВ 3 н/о н/о +27.0 +27.0 100 +42 +42 опасность
перегрева
1015.3 1005.5
10 21.06 СВ 3 н/о н/о +27.1 +26.6 97 +42 +42 опасность
перегрева
1015.1 1005.4
11 21.06 В 2 н/о н/о +28.0 +26.4 91 +43 +43 опасность
перегрева
1015.0 1005.3
12 21.06 СВ 2 н/о н/о +28.9 +27.7 93 +47 +47 опасность
перегрева
1014.9 1005.2
13 21.06 СВ 3 н/о н/о +29.4 +26.8 86 +46 +46 опасность
перегрева
1014.5 1004.8
14 21.06 СВ 3 н/о н/о +29.6 +27.0 86 +47 +47 опасность
перегрева
1014.2 1004.5
15 21.06 СВ 3 н/о н/о +30.5 +26.4 79 +47 +47 опасность
перегрева
1013.7 1004.1
16 21.06 С 3 н/о н/о +30.1 +26.5 81 +46 +46 опасность
перегрева
1013.5 1003.9
17 21.06 СВ 4 н/о н/о +28.9 +25.9 84 +43 +43 опасность
перегрева
1013.9 1004.2
18 21.06 С 1 н/о н/о +27.4 +26.2 93 +41 +41 опасность
перегрева
1014.2 1004.5 +30.8
19 21.06 штиль 0 н/о н/о +25.7 +23.5 88 +35 +35 очень
душно
1014.7 1004.9
20 21.06 С 1 н/о н/о +24.9 +23.3 91 +33 +33 очень
душно
1015.2 1005.4
21 21.06 С 1 н/о н/о +25.2 +25.1 99 +36 +36 очень
душно
1015.3 1005.5
22 21.06 С 2 н/о н/о +24.4 +24.3 99 +34 +34 очень
душно
1014.7 1004.9
23 21.06 СЗ 2 н/о н/о +23.2 +23.1 99 +32 +32 очень
душно
1014.7 1004.8
00 22.06 СЗ 2 н/о н/о +23.1 +23.0 99 +32 +32 очень
душно
1014.7 1004.8
01 22.06 С 2 н/о н/о +23.4 +23.3 99 +33 +33 очень
душно
1014.6 1004.7
02 22.06 СЗ 2 н/о н/о +23.1 +23.0 99 +32 +32 очень
душно
1014.4 1004.5
03 22.06 С 2 н/о н/о +23.2 +23.1 99 +32 +32 очень
душно
1014.4 1004.5
04 22.06 СЗ 2 н/о н/о +22.9 +22.5 98 +31 +31 очень
душно
1014.4 1004.5
05 22.06 С 2 н/о н/о +24.7 +23.3 92 +33 +33 очень
душно
1014.6 1004.8
06 22.06 СВ 2 н/о н/о +26.8 +26.8 100 +42 +42 опасность
перегрева
1015.1 1005.3 +22.6 304
07 22.06 СВ 3 н/о н/о +27.3 +27.3 100 +43 +43 опасность
перегрева
1015.1 1005.3
08 22.06 В 3 н/о н/о +27.3 +27.3 100 +43 +43 опасность
перегрева
1015.4 1005.7
09 22.06 СВ 3 н/о н/о +28.4 +25.8 86 +42 +42 опасность
перегрева
1015.9 1006.2
10 22.06 СВ 3 н/о н/о +29.9 +26.1 80 +45 +45 опасность
перегрева
1016.4 1006.7
11 22.06 СВ 4 н/о н/о +30.9 +25.2 72 +45 +45 опасность
перегрева
1016.1 1006.5
12 22.06 В 4 н/о н/о +29.7 +26.9 85 +47 +47 опасность
перегрева
1016.0 1006.3
13 22.06 В 3 н/о н/о +30.6 +24.7 71 +43 +43 опасность
перегрева
1015.1 1005.5
14 22.06 ЮВ 2 н/о н/о +29.8 +26.4 82 +46 +46 опасность
перегрева
1014.1 1004.5
15 22.06 Ю 3 н/о н/о +30.4 +27.0 82 +48 +48 опасность
перегрева
1013.6 1004.0
16 22.06 Ю 3 н/о н/о +29.9 +22.3 64 +39 +39 очень
душно
1013.6 1003.9
17 22.06 ЮЗ 2 н/о н/о +29.4 +21.8 64 +38 +38 очень
душно
1013.8 1004.1
18 22.06 ЮЗ 2 н/о н/о +28.6 +23.2 73 +39 +39 очень
душно
1013.6 1003.9 +31.8
19 22.06 ЮЗ 3 н/о н/о +27.2 +24.6 86 +39 +39 очень
душно
1013.6 1003.9
20 22.06 Ю 2 н/о н/о +26.2 +24.6 91 +37 +37 очень
душно
1013.9 1004.1
21 22.06 ЮЗ 3 н/о н/о +26.2 +24.6 91 +37 +37 очень
душно
1013.7 1003.9
22 22.06 Ю 4 н/о н/о +26.0 +23.8 88 +36 +36 очень
душно
1013.7 1003.9
23 22.06 Ю 4 н/о н/о +25.8 +23.6 88 +35 +35 очень
душно
1013.2 1003.4
00 23.06 Ю 3 н/о н/о +24.8 +24.7 99 +35 +35 очень
душно
1013.0 1003.2
01 23.06 Ю 4 н/о н/о +24.7 +24.6 99 +35 +35 очень
душно
1012.7 1002.9
02 23.06 Ю 5 н/о н/о +24.8 +24.7 99 +35 +35 очень
душно
1012.5 1002.7
03 23.06 Ю 5 н/о н/о +25.0 +24.9 99 +35 +35 очень
душно
1012.5 1002.7
04 23.06 Ю 5 н/о н/о +25.1 +25.0 99 +36 +36 очень
душно
1012.7 1002.9
05 23.06 Ю 6 н/о н/о +25.4 +25.3 99 +37 +37 очень
душно
1012.4 1002.6
06 23.06 Ю 5 н/о н/о +25.4 +25.3 99 +37 +37 очень
душно
1013.6 1003.8 +24.6 1
07 23.06 ЮВ 7 н/о н/о +25.8 +25.8 100 +38 +38 очень
душно
1012.4 1002.6
08 23.06 Ю 7 н/о н/о +26.5 +26.5 100 +40 +40 очень
душно
1013.6 1003.8
09 23.06 Ю 8 н/о н/о +26.6 +26.6 100 +41 +41 опасность
перегрева
1013.6 1003.9
10 23.06 Ю 8 н/о н/о +27.1 +27.1 100 +43 +43 опасность
перегрева
1013.6 1003.9
11 23.06 Ю 6 н/о н/о +27.3 +27.3 100 +43 +43 опасность
перегрева
1013.7 1004.0
12 23.06 ЮВ 6 н/о н/о +27.9 +27.9 100 +46 +46 опасность
перегрева
1013.5 1003.8
13 23.06 Ю 7 н/о н/о +28.5 +28.5 100 +48 +48 опасность
перегрева
1013.0 1003.3
14 23.06 Ю 8 н/о н/о +28.1 +28.1 100 +47 +47 опасность
перегрева
1012.5 1002.8
15 23.06 Ю 7 н/о н/о +28.0 +28.0 100 +46 +46 опасность
перегрева
1012.2 1002.5
16 23.06 Ю 6 н/о н/о +26.7 +26.7 100 +41 +41 опасность
перегрева
1011.9 1002.2
17 23.06 Ю 4 н/о н/о +26.9 +26.9 100 +42 +42 опасность
перегрева
1012.1 1002.4
18 23.06 Ю 2 н/о н/о +25.6 +25.5 99 +37 +37 очень
душно
1012.4 1002.6 +28.8
19 23.06 СВ 2 н/о н/о +25.2 +25.1 99 +36 +36 очень
душно
1012.7 1002.9
20 23.06 С 3 н/о н/о +24.9 +24.8 99 +35 +35 очень
душно
1013.3 1003.5
21 23.06 СВ 4 н/о н/о +24.6 +24.5 99 +34 +34 очень
душно
1013.5 1003.7
22 23.06 СВ 3 н/о н/о +24.5 +24.4 99 +34 +34 очень
душно
1013.7 1003.9
23 23.06 С 4 н/о н/о +24.2 +24.1 99 +33 +33 очень
душно
1013.9 1004.1
00 24.06 С 4 н/о н/о +23.9 +23.8 99 +32 +32 очень
душно
1013.7 1003.9
01 24.06 С 4 н/о н/о +23.5 +23.4 99 +32 +32 очень
душно
1013.7 1003.8
02 24.06 СЗ 4 н/о н/о +23.4 +23.3 99 +33 +33 очень
душно
1013.5 1003.6
03 24.06 С 5 н/о н/о +23.4 +23.3 99 +33 +33 очень
душно
1013.5 1003.6
04 24.06 С 6 н/о н/о +23.6 +23.5 99 +32 +32 очень
душно
1013.6 1003.8
05 24.06 С 7 н/о н/о +24.1 +24.0 99 +33 +33 очень
душно
1013.9 1004.1
06 24.06 С 7 н/о н/о +24.9 +24.8 99 +35 +35 очень
душно
1014.2 1004.4 +23.4 613
07 24.06 С 7 н/о н/о +25.3 +25.2 99 +36 +36 очень
душно
1014.3 1004.5
08 24.06 С 7 н/о н/о +25.9 +25.9 100 +38 +38 очень
душно
1014.3 1004.5
09 24.06 С 8 н/о н/о +26.0 +25.8 99 +38 +38 очень
душно
1014.4 1004.6
10 24.06 С 8 н/о н/о +26.4 +25.7 96 +39 +39 очень
душно
1014.6 1004.8
11 24.06 С 8 н/о н/о +26.8 +26.1 96 +40 +40 очень
душно
1014.5 1004.7
12 24.06 С 7 н/о н/о +27.2 +26.7 97 +42 +42 опасность
перегрева
1014.1 1004.4
13 24.06 С 9 н/о н/о +26.7 +25.1 91 +38 +38 очень
душно
1014.1 1004.3
14 24.06 С 9 н/о н/о +26.6 +25.7 95 +39 +39 очень
душно
1013.7 1003.9
15 24.06 С 8 н/о н/о +26.4 +25.9 97 +39 +39 очень
душно
1013.5 1003.7
16 24.06 С 7 н/о н/о +25.9 +25.5 98 +38 +38 очень
душно
1013.7 1003.9

 

Местоположение метеостанции Отранто (Италия): широта 40.10 долгота 18.48 высота над уровнем моря 79 м.

В архиве по умолчанию представлена погода в Отранто за последнюю неделю. Архивные данные за месяц целиком и за предыдущие месяцы, начиная с января 2011 года, Вы можете получить, выбрав интересующий диапазон дат из раскрывающегося списка и нажав кнопку "Ввод!".


*Определитесь, кто Вы:
робот инопланетянин человек

Внимание! Время в таблицах - всемирное. Для получения местного времени необходимо прибавить поправку, которая равна 1 ч.

Смотрите также архив погоды в соседних городах и на ближайших метеорологических станциях:

Погода в Лечче (Италия) (32 км)
Погода в Санта-Мария-ди-Леуке (Италия) (33 км)
Погода в Бриндиси (Италия) (76 км)
Погода на Сазани (Албания) (81 км)
Погода во Влёре (Албания) (94 км)
Погода в Мартина-Франка (Италия) (122 км)
Погода в Саранде (Албания) (132 км)
Погода в Керкире (Греция) (134 км)
Погода в Пунто Алисе (Италия) (136 км)
Погода в Джинозе (Италия) (141 км)

Пояснения к столбцам:

Ветер - указаны скорость ветра в м/с - средняя за 10 мин, порывы в срок и между сроками (в фигурных скобках) и направление, откуда дует ветер: С - северный, СВ - северо-восточный, В - восточный, ЮВ - юго-восточный, Ю - южный, ЮЗ - юго-западный, З - западный, СЗ - северо-западный.
Видимость - горизонтальная дальность видимости в метрах или километрах. При видимости от 1 до 10 км при отсутствии осадков обычно наблюдается дымка, при ухудшении видимости до 1 км и менее - туман. В сухую погоду видимость может ухудшаться дымом, пылью или мглою.
Явления - указаны атмосферные явления, наблюдавшиеся в срок или в последний час перед сроком; фигурными скобками обозначены явления, наблюдавшиеся между сроками (за 1-3 часа до срока); квадратными скобками обозначены град или гололедные отложения с указанием их диаметра в мм.
Облачность - указаны через наклонную черту общая и нижняя облачность в баллах и высота нижней границы облаков в метрах; квадратными скобками обозначены формы облаков: Ci - перистые, Cs - перисто-слоистые, Cc - перисто-кучевые, Ac - высококучевые, As - высокослоистые, Sc - слоисто-кучевые, Ns - слоисто-дождевые, Cu - кучевые, Cb - кучево-дождевые. Подробнее классификацию облаков см. в Атласе облаков (PDF).
T - Температура воздуха - температура, измеренная на высоте 2 м над землей.
Td - Температура точки росы - температура, при понижении до которой содержащийся в воздухе водяной пар достигнет насыщения.
f - Относительная влажность воздуха - влажноcть воздуха, измеренная на высоте 2 м над землей.
Te - Эффективная температура - температура, которую ощущает одетый по сезону человек в тени. Характеристика душности погоды. При расчете учитывается влияние влажности воздуха и скорости ветра на теплоощущения человека.
Tes - Эффективная температура на солнце - температура, которую ощущает человек, с поправкой на солнечный нагрев. Характеристика знойности погоды. Зависит от высоты солнца над горизонтом, облачности и скорости ветра. Ночью, в пасмурную погоду, а также при ветре 12 м/с и более поправка равна нулю.
P - Атмосферное давление - приведенное к уровню моря атмосферное давление.
Po - Атмосферное давление - измеренное на уровне метеостанции атмосферное давление.
Tmin - Минимальная температура - минимум температуры воздуха на высоте 2 м над землей.
Tmax - Максимальная температура - максимум температуры воздуха на высоте 2 м над землей.
R - Количество осадков - Количество выпавших осадков за период времени, мм. При наведении курсора мыши на число - период времени, за который выпало указанное количество осадков.
R24 - Количество осадков - Количество выпавших осадков за 24 часа, мм.
S - Снежный покров - Высота снежного покрова, см. При наведении курсора мыши на число - состояние снежного покрова и степень покрытия местности в баллах.